Weather Roundup
Issued by NWS Corpus Christi, TX

Home | Current Version | Previous Version | Text Only | Print | Product List | Glossary Off
Versions: 1 2 3 4 5 6 7 8 9 10 11 12 13 14 15 16 17 18 19 20 21 22 23 24 25 26 27 28 29 30 31 32 33 34 35 36 37 38 39 40 41 42 43 44 45 46 47 48 49 50

000
ASUS44 KCRP 311510
HRRCRP

SOUTH TEXAS REGIONAL WEATHER ROUNDUP
NATIONAL WEATHER SERVICE CORPUS CHRISTI TX
1000 AM CDT MON AUG 31 2015


TXZ229>244-311600-
...CORPUS CHRISTI AREA OBSERVATIONS...

CITY           SKY/WX    TMP DP  RH WIND       PRES   REMARKS
CORPUS CHRISTI PTSUNNY   87  74  64 SE9       29.98F HX  95
NAS CORPUS CHR MOSUNNY   87  74  64 S12       29.98S HX  95
ROCKPORT       MOSUNNY   88  74  63 SE9       29.99R HX  96
KINGSVILLE NAS PTSUNNY   88  77  69 S9        29.99R HX 100
ALICE          MOSUNNY   84  75  74 SE8       29.99R HX  92
FALFURRIAS     SUNNY     85  76  73 SE6       29.98S HX  94
$$

...VICTORIA AREA OBSERVATIONS...

CITY           SKY/WX    TMP DP  RH WIND       PRES   REMARKS
VICTORIA       PTSUNNY   83  77  82 NE3       30.01S HX  92
BEEVILLE       FAIR      84  77  80 S7        30.01S HX  94
PLEASANTON     NOT AVBL
SAN ANTONIO    PTSUNNY   82  71  69 S9        30.04S
$$

...LAREDO AREA OBSERVATIONS...

CITY           SKY/WX    TMP DP  RH WIND       PRES   REMARKS
LAREDO         PTSUNNY   84  74  72 SE10      30.01R HX  91
COTULLA        SUNNY     81  73  76 SE10      30.01R
DEL RIO        SUNNY     80  70  71 SE9       30.00R
MCALLEN        MOSUNNY   85  76  74 SE12      29.97F HX  94
HEBBRONVILLE   NOT AVBL
$$

...OTHER TEXAS OBSERVATIONS...

CITY           SKY/WX    TMP DP  RH WIND       PRES   REMARKS
BROWNSVILLE    MOSUNNY   83  77  82 S10       29.96S HX  92
HOUSTON        MOSUNNY   85  74  69 NE3       30.04S HX  92
COL. STATION   MOSUNNY   81  73  76 S7        30.04S
AUSTIN         MOSUNNY   82  72  71 S7        30.03S
WACO           SUNNY     81  70  69 SW6       30.05R
FORT WORTH     MOSUNNY   82  67  60 S5        30.03R
WICHITA FALLS  SUNNY     82  62  50 S9        30.02R
LUBBOCK        MOSUNNY   75  58  55 S13       30.09S
EL PASO        SUNNY     77  50  38 SE6       30.09S
$$

...MARINE OBSERVATIONS...

STATION/POSITION TIME  SKY/WX   TEMP    WIND        PRES    VSBY  WAVE   SWELL
                                AIR SEA DIR/SP/G                  HT/PER HT/PER
                 (UTC)          (F)     (DEG/KT/KT) (MB)    (MI)  (FT/S) (FT/S)
PORT ARANSAS     1400            84 85  150/  8/ 10 1016.1R
BUOY 90 E PORT A 1450            84 85  160/  8/ 10 1016.1R         1/ 4
BUOY 45 SE BAFFI 1450            83 84  170/ 10/ 10 1015.1S         2/ 4   2/ 4
BUOY 200 E PT IS 1450            85 85  130/ 10/ 12 1016.5R         2/ 6   2/ 6
BUOY 15 E GALVES 1450            85 85  110/  4/  6 1016.8R         1/ 4
$$



USA.gov is the U.S. government's official web portal to all federal, state and local government web resources and services.